www.pogodaiklimat.ru

Погода и климат >> Архив погоды >> Австралия >> Западная Австралия >> Остров Варанас


ПОГОДА на Острове Варанас

  • Прогноз погоды на Острове Варанас
  • Монитор погоды на Острове Варанас

АРХИВ ПОГОДЫ на Острове Варанас

Время (UTC), дата Ветер
(напр.,м/с)
 
Видим.   Явления Облачность Т
(С)
Тd
(С)
f
(%)
Тe
(С)
Тes
(С)
Комфортность P
(гПа)
Po
(гПа)
Тmin
(С)
Tmax
(С)
R
(мм)
R24
(мм)
S
(см)
04 14.05 В 10 н/о н/о +26.6 +10.7 37 +27 +27 жарко 1017.5 1014.7
07 14.05 В 10 н/о н/о +27.1 +12.0 39 +28 +28 жарко 1015.8 1013.0
10 14.05 СВ 9 н/о н/о +25.5 +13.4 47 +28 +28 жарко 1016.5 1013.7
13 14.05 СВ 6 н/о н/о +25.4 +14.5 51 +28 +28 жарко 1017.7 1014.9 +27.5
16 14.05 СВ 5 н/о н/о +24.6 +16.6 61 +28 +28 душно 1017.2 1014.4
19 14.05 Ю 6 н/о н/о +22.6 +17.7 74 +28 +28 душно 1017.0 1014.2
22 14.05 Ю 8 н/о н/о +23.0 +15.3 62 +27 +27 душно 1017.2 1014.4
01 15.05 ЮВ 6 н/о н/о +25.0 +10.5 40 +26 +26 жарко 1018.3 1015.5 +22.5
04 15.05 В 7 н/о н/о +27.4 +12.6 40 +29 +29 жарко 1017.0 1014.2
07 15.05 СВ 6 н/о н/о +27.6 +14.9 46 +30 +30 жарко 1015.6 1012.8
10 15.05 СВ 4 н/о н/о +25.0 +17.0 61 +29 +29 душно 1016.1 1013.3
13 15.05 СВ 4 н/о н/о +24.6 +19.4 73 +30 +30 очень
душно
1017.2 1014.4 +28.7
16 15.05 СЗ 2 н/о н/о +24.1 +21.2 84 +30 +30 очень
душно
1016.7 1013.9
19 15.05 Ю 5 н/о н/о +22.7 +20.4 87 +29 +29 очень
душно
1016.0 1013.2
22 15.05 Ю 4 н/о н/о +23.0 +18.5 76 +29 +29 очень
душно
1016.2 1013.4
01 16.05 ЮВ 5 н/о н/о +25.4 +16.3 57 +29 +29 душно 1017.3 1014.5 +22.7
04 16.05 ЮВ 4 н/о н/о +27.1 +14.8 47 +30 +30 душно 1016.3 1013.5
07 16.05 В 3 н/о н/о +27.4 +17.0 53 +31 +31 душно 1014.8 1012.0
10 16.05 Ю 2 н/о н/о +25.7 +14.8 51 +28 +28 жарко 1015.4 1012.6
13 16.05 З 4 н/о н/о +24.6 +18.3 68 +29 +29 душно 1016.3 1013.5 +28.4
16 16.05 ЮЗ 3 н/о н/о +25.1 +20.1 74 +31 +31 очень
душно
1015.9 1013.1
19 16.05 Ю 3 н/о н/о +24.3 +20.6 80 +30 +30 очень
душно
1015.1 1012.3
22 16.05 штиль 0 н/о н/о +23.3 +20.6 85 +31 +31 очень
душно
1014.7 1011.9
01 17.05 Ю 5 н/о н/о +24.9 +20.8 78 +31 +31 очень
душно
1015.8 1013.0 +23.2
04 17.05 Ю 4 н/о н/о +26.6 +13.7 45 +29 +29 жарко 1015.0 1012.2
07 17.05 Ю 4 н/о н/о +27.7 +17.2 53 +32 +32 очень
душно
1013.0 1010.2
10 17.05 З 4 н/о н/о +27.0 +15.7 50 +30 +30 душно 1013.4 1010.6
13 17.05 З 6 н/о н/о +25.0 +20.3 75 +31 +31 очень
душно
1014.7 1011.9 +28.5
16 17.05 Ю 6 н/о н/о +25.1 +16.8 60 +29 +29 душно 1014.7 1011.9
19 17.05 Ю 7 н/о н/о +24.0 +15.2 58 +27 +27 жарко 1013.8 1011.0
22 17.05 ЮВ 6 н/о н/о +23.9 +12.5 49 +26 +26 жарко 1014.1 1011.3
01 18.05 В 9 н/о н/о +26.1 +12.5 43 +28 +28 жарко 1016.1 1013.3 +23.4
04 18.05 В 11 н/о н/о +26.4 +15.4 51 +29 +29 жарко 1015.3 1012.5
07 18.05 СВ 8 н/о н/о +26.7 +17.5 57 +31 +31 душно 1014.4 1011.6
10 18.05 СВ 5 н/о н/о +24.7 +18.9 70 +30 +30 очень
душно
1015.1 1012.3
13 18.05 СВ 4 н/о н/о +24.2 +19.3 74 +29 +29 душно 1016.8 1014.0 +27.5
16 18.05 СВ 1 н/о н/о +23.8 +19.5 77 +29 +29 душно 1016.6 1013.8
19 18.05 ЮВ 3 н/о н/о +23.0 +19.8 82 +30 +30 очень
душно
1015.9 1013.1
22 18.05 ЮВ 3 н/о н/о +22.7 +20.2 86 +29 +29 очень
душно
1016.1 1013.3
01 19.05 В 3 н/о н/о +24.5 +20.0 76 +30 +30 очень
душно
1018.2 1015.4 +22.5
04 19.05 В 5 н/о н/о +27.3 +16.6 52 +31 +31 душно 1017.3 1014.5
07 19.05 В 4 н/о н/о +27.1 +18.9 61 +32 +32 очень
душно
1015.6 1012.8
10 19.05 СВ 4 н/о н/о +24.5 +18.2 68 +29 +29 душно 1015.6 1012.8
13 19.05 В 3 н/о н/о +24.0 +18.6 72 +29 +29 душно 1017.2 1014.4 +28.4
16 19.05 Ю 3 н/о н/о +23.4 +18.3 73 +29 +29 душно 1017.5 1014.7
19 19.05 ЮЗ 4 н/о н/о +23.5 +20.0 81 +29 +29 душно 1017.1 1014.3
22 19.05 Ю 6 н/о н/о +22.5 +21.0 91 +29 +29 очень
душно
1017.5 1014.7
01 20.05 Ю 6 н/о н/о +23.7 +20.0 80 +29 +29 душно 1018.8 1016.0 +22.0
04 20.05 Ю 5 н/о н/о +25.4 +19.5 70 +31 +31 очень
душно
1018.2 1015.4
07 20.05 Ю 5 н/о н/о +26.3 +18.9 64 +31 +31 душно 1016.6 1013.8
10 20.05 Ю 6 н/о н/о +25.4 +19.1 68 +30 +30 душно 1016.7 1013.9
13 20.05 ЮЗ 5 н/о н/о +24.9 +21.0 79 +31 +31 очень
душно
1017.8 1015.0 +27.2
16 20.05 ЮЗ 7 н/о н/о +24.6 +20.7 79 +31 +31 очень
душно
1017.5 1014.7
19 20.05 Ю 7 н/о н/о +24.3 +18.9 72 +29 +29 душно 1016.7 1013.9
22 20.05 Ю 4 н/о н/о +23.2 +17.2 69 +28 +28 душно 1017.3 1014.5
01 21.05 Ю 4 н/о н/о +25.6 +18.3 64 +30 +30 душно 1018.4 1015.6 +22.8

 

Местоположение метеостанции Остров Варанас (Западная Австралия, Австралия): широта -20.65 долгота 115.57 высота над уровнем моря 24 м.

В архиве по умолчанию представлена погода на Острове Варанас за последнюю неделю. Архивные данные за месяц целиком и за предыдущие месяцы, начиная с января 2011 года, Вы можете получить, выбрав интересующий диапазон дат из раскрывающегося списка и нажав кнопку "Ввод!".


*Определитесь, кто Вы:
робот инопланетянин человек

Внимание! Время в таблицах - всемирное. Для получения местного времени необходимо прибавить поправку, которая равна 8 ч.

Смотрите также архив погоды в соседних городах и на ближайших метеорологических станциях:

Погода в Барроу-Айленд (Западная Австралия, Австралия) (31 км)
Погода в Марди (Западная Австралия, Австралия) (72 км)
Погода на Острове Тевенард (Западная Австралия, Австралия) (106 км)
Погода в Онслоу (Западная Австралия, Австралия) (123 км)
Погода в Каррате (Западная Австралия, Австралия) (125 км)
Погода в Роборн аэропорту (Западная Австралия, Австралия) (165 км)
Погода в Лермонте (Западная Австралия, Австралия) (234 км)
Погода в Порт-Хедленде Apardoo (Западная Австралия, Австралия) (320 км)
Погода в Параберду (Западная Австралия, Австралия) (359 км)
Погода в Марбл-баре (Западная Австралия, Австралия) (438 км)

Пояснения к столбцам:

Ветер - указаны скорость ветра в м/с - средняя за 10 мин, порывы в срок и между сроками (в фигурных скобках) и направление, откуда дует ветер: С - северный, СВ - северо-восточный, В - восточный, ЮВ - юго-восточный, Ю - южный, ЮЗ - юго-западный, З - западный, СЗ - северо-западный.
Видимость - горизонтальная дальность видимости в метрах или километрах. При видимости от 1 до 10 км при отсутствии осадков обычно наблюдается дымка, при ухудшении видимости до 1 км и менее - туман. В сухую погоду видимость может ухудшаться дымом, пылью или мглою.
Явления - указаны атмосферные явления, наблюдавшиеся в срок или в последний час перед сроком; фигурными скобками обозначены явления, наблюдавшиеся между сроками (за 1-3 часа до срока); квадратными скобками обозначены град или гололедные отложения с указанием их диаметра в мм.
Облачность - указаны через наклонную черту общая и нижняя облачность в баллах и высота нижней границы облаков в метрах; квадратными скобками обозначены формы облаков: Ci - перистые, Cs - перисто-слоистые, Cc - перисто-кучевые, Ac - высококучевые, As - высокослоистые, Sc - слоисто-кучевые, Ns - слоисто-дождевые, Cu - кучевые, Cb - кучево-дождевые. Подробнее классификацию облаков см. в Атласе облаков (PDF).
T - Температура воздуха - температура, измеренная на высоте 2 м над землей.
Td - Температура точки росы - температура, при понижении до которой содержащийся в воздухе водяной пар достигнет насыщения.
f - Относительная влажность воздуха - влажноcть воздуха, измеренная на высоте 2 м над землей.
Te - Эффективная температура - температура, которую ощущает одетый по сезону человек в тени. Характеристика душности погоды. При расчете учитывается влияние влажности воздуха и скорости ветра на теплоощущения человека.
Tes - Эффективная температура на солнце - температура, которую ощущает человек, с поправкой на солнечный нагрев. Характеристика знойности погоды. Зависит от высоты солнца над горизонтом, облачности и скорости ветра. Ночью, в пасмурную погоду, а также при ветре 12 м/с и более поправка равна нулю.
P - Атмосферное давление - приведенное к уровню моря атмосферное давление.
Po - Атмосферное давление - измеренное на уровне метеостанции атмосферное давление.
Tmin - Минимальная температура - минимум температуры воздуха на высоте 2 м над землей.
Tmax - Максимальная температура - максимум температуры воздуха на высоте 2 м над землей.
R - Количество осадков - Количество выпавших осадков за период времени, мм. При наведении курсора мыши на число - период времени, за который выпало указанное количество осадков.
R24 - Количество осадков - Количество выпавших осадков за 24 часа, мм.
S - Снежный покров - Высота снежного покрова, см. При наведении курсора мыши на число - состояние снежного покрова и степень покрытия местности в баллах.